Weather History for KEGE - January, 2013

Change the Weather History Date:

Tuesday, January 22, 2013

  Actual Average Record
Temperature  
Mean Temperature 16 °F -  
Max Temperature 35 °F 34 °F - (-1)
Min Temperature -2 °F 3 °F - (-1)
Degree Days  
Heating Degree Days 48    
Moisture  
Dew Point 2 °F    
Average Humidity 76    
Maximum Humidity 92    
Minimum Humidity 33    
Precipitation  
Precipitation 0.00 in - - ()
Sea Level Pressure  
Sea Level Pressure 30.36 in    
Wind  
Wind Speed 1 mph (ESE)    
Max Wind Speed 7 mph    
Max Gust Speed -    
Visibility 10 miles    
Events      
Averages and records for this station are not official NWS values.
T = Trace of Precipitation, MM = Missing Value Source: NWS Daily Summary

Daily Weather History Graph

Daily Weather History Graph

Search for Another Location

Airport or City:

Trip Planner

Search our weather history database for the weather conditions in past years. The results will help you decide how hot, cold, wet, or windy it might be!

Date:

Astronomy

Jan. 22, 2013 Rise Set
Actual Time 7:22 AM MST 5:16 PM MST
Civil Twilight 6:53 AM MST 5:45 PM MST
Nautical Twilight 6:21 AM MST 6:18 PM MST
Astronomical Twilight 5:49 AM MST 6:50 PM MST
Moon 1:41 PM MST (1/22) 3:46 AM MST (1/22)
Length of Visible Light 10h 51m
Length of Day
9h 53m
Waxing Gibbous, 83% of the Moon is Illuminated
Jan 22
Waxing Gibbous
Jan 26
Full
Feb 3
Last Quarter
Feb 10
New
Feb 17
First Quarter

Hourly Weather History & Observations

Time (MST) Temp. Windchill Dew Point Humidity Pressure Visibility Wind Dir Wind Speed Gust Speed Precip Events Conditions
12:15 AM 6.8 °F - 3.2 °F 85% 30.35 in 10.0 mi Calm Calm - N/A   Clear
12:35 AM 5.0 °F -2.1 °F 1.4 °F 85% 30.34 in 10.0 mi East 3.5 mph - N/A   Clear
12:55 AM 6.8 °F - 3.2 °F 85% 30.34 in 10.0 mi Calm Calm - N/A   Clear
1:35 AM 3.2 °F -9.1 °F -0.4 °F 85% 30.35 in 10.0 mi East 6.9 mph - N/A   Clear
2:15 AM 3.2 °F - -0.4 °F 85% 30.37 in 10.0 mi Calm Calm - N/A   Clear
2:35 AM 3.2 °F - -0.4 °F 85% 30.37 in 10.0 mi Calm Calm - N/A   Clear
2:55 AM 3.2 °F - -0.4 °F 85% 30.36 in 10.0 mi Calm Calm - N/A   Clear
3:15 AM 1.4 °F - -0.4 °F 92% 30.36 in 10.0 mi Calm Calm - N/A   Clear
3:35 AM 3.2 °F - -0.4 °F 85% 30.36 in 10.0 mi Calm Calm - N/A   Clear
3:55 AM 1.4 °F - -0.4 °F 92% 30.36 in 10.0 mi Calm Calm - N/A   Clear
4:15 AM -0.4 °F -10.4 °F -2.2 °F 92% 30.35 in 10.0 mi ENE 4.6 mph - N/A   Clear
4:35 AM -0.4 °F -10.4 °F -2.2 °F 92% 30.36 in 10.0 mi ESE 4.6 mph - N/A   Clear
4:55 AM -0.4 °F - -2.2 °F 92% 30.36 in 10.0 mi Calm Calm - N/A   Clear
5:15 AM -0.4 °F - -4.0 °F 85% 30.37 in 10.0 mi Calm Calm - N/A   Clear
5:35 AM -0.4 °F - -5.8 °F 78% 30.37 in 10.0 mi Calm Calm - N/A   Clear
5:55 AM -0.4 °F - -5.8 °F 78% 30.38 in 10.0 mi Calm Calm - N/A   Clear
6:15 AM -2.2 °F -10.4 °F -5.8 °F 85% 30.38 in 10.0 mi East 3.5 mph - N/A   Clear
6:35 AM -2.2 °F -12.5 °F -5.8 °F 85% 30.38 in 10.0 mi East 4.6 mph - N/A   Clear
6:50 AM -2.2 °F - -5.8 °F 85% 30.38 in 10.0 mi Calm Calm - N/A   Partly Cloudy
7:55 AM -2.2 °F - -5.8 °F 85% 30.39 in 10.0 mi Calm Calm - N/A   Partly Cloudy
9:50 AM 5.0 °F - 3.2 °F 92% 30.41 in 10.0 mi Calm Calm - N/A   Partly Cloudy
9:55 AM 1.4 °F - -2.2 °F 85% 30.40 in 10.0 mi Calm Calm - N/A   Partly Cloudy
10:50 AM 10.4 °F - 5.0 °F 79% 30.40 in 10.0 mi Calm Calm - N/A   Partly Cloudy
11:55 AM 24.8 °F - 10.4 °F 54% 30.36 in 10.0 mi Calm Calm - N/A   Partly Cloudy
12:50 PM 24.8 °F - 10.4 °F 54% 30.33 in 10.0 mi Calm Calm - N/A   Partly Cloudy
1:50 PM 26.6 °F 22.6 °F 10.4 °F 51% 30.30 in 10.0 mi WSW 3.5 mph - N/A   Partly Cloudy
2:50 PM 35.6 °F - 8.6 °F 33% 30.29 in 10.0 mi Calm Calm - N/A   Clear
3:53 PM 35.6 °F - 8.6 °F 33% 30.28 in 10.0 mi Calm Calm - N/A   Clear
4:50 PM 33.8 °F - 8.6 °F 35% 30.29 in 10.0 mi Calm Calm - N/A   Clear
5:52 PM 24.8 °F - 10.4 °F 54% 30.31 in 10.0 mi Calm Calm - N/A   Clear
6:51 PM 21.2 °F 13.6 °F 12.2 °F 68% 30.33 in 10.0 mi East 5.8 mph - N/A   Clear
7:57 PM 17.6 °F 10.7 °F 10.4 °F 73% 30.35 in 10.0 mi ESE 4.6 mph - N/A   Clear
8:50 PM 14.0 °F - 6.8 °F 73% 30.37 in 10.0 mi Calm Calm - N/A   Clear
9:50 PM 12.2 °F 2.9 °F 6.8 °F 79% 30.38 in 10.0 mi Variable 5.8 mph - N/A   Clear
10:50 PM 12.2 °F 2.9 °F 6.8 °F 79% 30.38 in 10.0 mi Variable 5.8 mph - N/A   Clear
11:15 PM 8.6 °F - 3.2 °F 79% 30.41 in 10.0 mi Calm Calm - N/A   Clear
11:35 PM 8.6 °F - 3.2 °F 79% 30.41 in 10.0 mi Calm Calm - N/A   Clear
11:55 PM 6.8 °F - 3.2 °F 85% 30.41 in 10.0 mi Calm Calm - N/A   Clear